User: anonymous   Login
Location: Handeloh
(53.2500°N, 9.8330°E)
Time: 17:53:45
(UTC+01:00)
Language:

deb Explorer IX - Orbit

View from above orbital plane
View from above orbital plane
View from above satellite
View from above satellite

Ground track
Ground track

The orbit data is extracted from the following two-line orbital elements,

1    85U 61004C   19324.13491063  .00001346  00000-0  31162-3 0  9990
2    85  38.7721  13.2899 0388097 178.3797 181.8294 14.19958889901164
Epoch (UTC): 20 November 2019 03:14:16
Eccentricity: 0.0388097
inclination: 38.7721°
perigee height: 546 km
apogee height: 1105 km
right ascension of ascending node: 13.2899°
argument of perigee: 178.3797°
revolutions per day: 14.19958889
mean anomaly at epoch: 181.8294°
orbit number at epoch: 90116

The dashed part of the orbit path shows where the satellite is in the earth's shadow,  

DLR